N961JF KTEB-EGPO

Flight info

Callsign N961JF
Flight time N/A
Altitude 37000
Route DCT LGA DCT TOPPS N635A RIKAL/M083F390 DCT 53N050W 56N040W 58N030W 58N020W 58N010W/N0474F390 DCT STN DCT
Aircraft GLF5/M-SBDE2E3FGHIJ3J4J5P2RWXY/LB1D1

Departure

Time 2026-04-30 18:10
Airport Teterboro Airport (KTEB)

Arrival

Time N/A
Airport Stornoway Airport (EGPO)
Time Latitude Longitude Altitude Speed Heading
2026-04-30 17:41 40.85712 -74.06173 14 ft 0 kts 215°
2026-04-30 18:06 40.85711 -74.06173 14 ft 0 kts 215°
2026-04-30 18:07 40.85774 -74.06039 14 ft 9 kts 54°
2026-04-30 18:08 40.85798 -74.05650 14 ft 16 kts 82°
2026-04-30 18:09 40.85287 -74.06130 14 ft 131 kts 229°
2026-04-30 18:10 40.82315 -74.11674 1493 ft 208 kts 252°
2026-04-30 18:11 40.81452 -74.19255 3812 ft 253 kts 274°
2026-04-30 18:11 40.81220 -74.26307 7514 ft 265 kts 268°
2026-04-30 18:12 40.81043 -74.33551 7982 ft 265 kts 268°
2026-04-30 18:13 40.80936 -74.38416 7980 ft 265 kts 269°
2026-04-30 18:13 40.84804 -74.42506 9261 ft 294 kts
2026-04-30 18:14 40.88823 -74.40411 10342 ft 355 kts 28°
2026-04-30 18:15 40.95220 -74.34467 13180 ft 388 kts 35°
2026-04-30 18:15 41.01800 -74.27818 16088 ft 413 kts 35°
2026-04-30 18:16 41.06399 -74.23133 16968 ft 421 kts 35°
2026-04-30 18:16 41.11072 -74.18362 16979 ft 422 kts 35°
2026-04-30 18:17 41.13363 -74.16021 16981 ft 420 kts 35°
2026-04-30 18:17 41.15445 -74.13235 16961 ft 422 kts 56°
2026-04-30 18:17 41.17492 -74.05989 16979 ft 424 kts 75°
2026-04-30 18:18 41.18338 -74.02199 16972 ft 424 kts 74°
2026-04-30 18:18 41.19184 -73.98383 17427 ft 439 kts 75°
2026-04-30 18:18 41.20038 -73.94527 18777 ft 435 kts 75°
2026-04-30 18:18 41.20893 -73.90644 19590 ft 446 kts 75°
2026-04-30 18:19 41.21769 -73.86665 20667 ft 450 kts 75°
2026-04-30 18:19 41.22646 -73.82673 21599 ft 457 kts 75°
2026-04-30 18:19 41.23541 -73.78605 22470 ft 464 kts 75°
2026-04-30 18:19 41.24449 -73.74460 23515 ft 467 kts 75°
2026-04-30 18:20 41.25361 -73.70297 24327 ft 476 kts 75°
2026-04-30 18:20 41.26279 -73.66088 25193 ft 482 kts 75°
2026-04-30 18:20 41.27214 -73.61809 26078 ft 486 kts 74°
2026-04-30 18:20 41.28625 -73.57672 26777 ft 494 kts 57°
2026-04-30 18:21 41.30839 -73.54160 27576 ft 496 kts 41°
2026-04-30 18:21 41.33365 -73.51022 28337 ft 502 kts 41°
2026-04-30 18:21 41.35948 -73.47697 29040 ft 509 kts 42°
2026-04-30 18:21 41.38479 -73.44383 29834 ft 513 kts 42°
2026-04-30 18:22 41.41040 -73.41015 30523 ft 519 kts 42°
2026-04-30 18:22 41.46183 -73.34226 31964 ft 520 kts 43°
2026-04-30 18:22 41.48733 -73.30855 32760 ft 518 kts 43°
2026-04-30 18:23 41.51310 -73.27442 33397 ft 517 kts 43°
2026-04-30 18:23 41.53864 -73.24057 34025 ft 515 kts 43°
2026-04-30 18:23 41.56382 -73.20715 34690 ft 513 kts 43°
2026-04-30 18:23 41.58914 -73.17351 35254 ft 513 kts 43°
2026-04-30 18:24 41.63932 -73.10675 36440 ft 509 kts 43°
2026-04-30 18:24 41.66436 -73.07336 36780 ft 515 kts 43°
2026-04-30 18:24 41.68998 -73.03918 36806 ft 529 kts 43°
2026-04-30 18:25 41.71645 -73.00381 36809 ft 540 kts 43°
2026-04-30 18:25 41.79626 -72.89686 36804 ft 537 kts 43°
2026-04-30 18:26 41.87512 -72.79083 36805 ft 535 kts 44°
2026-04-30 18:27 41.95412 -72.68421 36803 ft 536 kts 43°
2026-04-30 18:28 42.03066 -72.58048 37126 ft 494 kts 43°
2026-04-30 18:28 42.05495 -72.54752 37133 ft 505 kts 43°
2026-04-30 18:28 42.10462 -72.47998 37839 ft 509 kts 44°
2026-04-30 18:29 42.12959 -72.44595 38323 ft 506 kts 44°
2026-04-30 18:29 42.20392 -72.34441 39538 ft 506 kts 45°
2026-04-30 18:30 42.25294 -72.27724 40268 ft 506 kts 44°
2026-04-30 18:30 42.30244 -72.20927 41024 ft 504 kts 44°
2026-04-30 18:31 42.32694 -72.17557 41316 ft 505 kts 44°
2026-04-30 18:31 42.37585 -72.10816 41991 ft 503 kts 44°
2026-04-30 18:32 42.42476 -72.04060 42577 ft 503 kts 45°
2026-04-30 18:32 42.44947 -72.00640 42896 ft 502 kts 45°
2026-04-30 18:32 42.49815 -71.93892 43468 ft 501 kts 45°
2026-04-30 18:33 42.52249 -71.90511 43753 ft 500 kts 44°
2026-04-30 18:33 42.57063 -71.83815 44354 ft 497 kts 45°
2026-04-30 18:33 42.59502 -71.80415 44617 ft 497 kts 45°
2026-04-30 18:34 42.61888 -71.77086 44796 ft 495 kts 45°
2026-04-30 18:34 42.66754 -71.70283 44807 ft 510 kts 45°
2026-04-30 18:35 42.71739 -71.63299 44813 ft 522 kts 45°
2026-04-30 18:35 42.76846 -71.56125 44806 ft 530 kts 45°
2026-04-30 18:36 42.84507 -71.45328 44802 ft 524 kts 45°
2026-04-30 18:37 42.92040 -71.34673 44801 ft 521 kts 46°
2026-04-30 18:37 42.97090 -71.27507 44808 ft 523 kts 46°
2026-04-30 18:38 43.02117 -71.20355 44804 ft 522 kts 46°
2026-04-30 18:38 43.07131 -71.13205 44803 ft 521 kts 46°
2026-04-30 18:39 43.12133 -71.06054 44803 ft 523 kts 46°
2026-04-30 18:39 43.17173 -70.98829 44787 ft 525 kts 46°
2026-04-30 18:40 43.22213 -70.91588 44793 ft 524 kts 46°
2026-04-30 18:40 43.27232 -70.84355 44799 ft 523 kts 46°
2026-04-30 18:41 43.32228 -70.77139 44814 ft 523 kts 46°
2026-04-30 18:41 43.37249 -70.69868 44805 ft 523 kts 46°
2026-04-30 18:42 43.42232 -70.62633 44817 ft 523 kts 46°
2026-04-30 18:42 43.49704 -70.51750 44811 ft 522 kts 46°
2026-04-30 18:45 43.77093 -70.11495 44812 ft 522 kts 46°
2026-04-30 18:46 43.82035 -70.04170 44812 ft 522 kts 46°
2026-04-30 18:46 43.86945 -69.96874 44812 ft 521 kts 46°
2026-04-30 18:47 43.91898 -69.89494 44824 ft 521 kts 46°
2026-04-30 18:47 43.96704 -69.82313 44820 ft 521 kts 46°
2026-04-30 18:48 44.01634 -69.74931 44823 ft 522 kts 46°
2026-04-30 18:48 44.06556 -69.67542 44817 ft 522 kts 46°
2026-04-30 18:49 44.11480 -69.60125 44808 ft 521 kts 46°
2026-04-30 18:49 44.16398 -69.52702 44814 ft 520 kts 47°
2026-04-30 18:50 44.21281 -69.45312 44813 ft 520 kts 47°
2026-04-30 18:50 44.26190 -69.37861 44819 ft 520 kts 47°
2026-04-30 18:51 44.31060 -69.30453 44814 ft 519 kts 47°
2026-04-30 18:51 44.35921 -69.23037 44815 ft 518 kts 47°
2026-04-30 18:52 44.40765 -69.15626 44823 ft 518 kts 47°
2026-04-30 18:52 44.45519 -69.08335 44818 ft 518 kts 47°
2026-04-30 18:53 44.50364 -69.00885 44822 ft 518 kts 47°
2026-04-30 18:53 44.55195 -68.93438 44830 ft 517 kts 47°
2026-04-30 18:54 44.60032 -68.85960 44838 ft 517 kts 47°
2026-04-30 18:54 44.64855 -68.78484 44842 ft 517 kts 47°
2026-04-30 18:55 44.69649 -68.71033 44847 ft 517 kts 47°
2026-04-30 18:55 44.76848 -68.59806 44850 ft 515 kts 47°
2026-04-30 18:56 44.84014 -68.48587 44855 ft 515 kts 47°
2026-04-30 18:57 44.91207 -68.37279 44850 ft 516 kts 48°
2026-04-30 18:57 44.95973 -68.29761 44850 ft 515 kts 49°
2026-04-30 18:58 45.03107 -68.18471 44851 ft 515 kts 48°
2026-04-30 18:59 45.10267 -68.07093 44861 ft 516 kts 48°
2026-04-30 19:00 45.19783 -67.91898 44852 ft 515 kts 49°
2026-04-30 19:01 45.29258 -67.76687 44854 ft 516 kts 49°
2026-04-30 19:02 45.36363 -67.65226 44864 ft 515 kts 49°
2026-04-30 19:03 45.45810 -67.49912 44865 ft 516 kts 49°
2026-04-30 19:04 45.55232 -67.34555 44866 ft 515 kts 49°
2026-04-30 19:05 45.64628 -67.19157 44874 ft 516 kts 49°
2026-04-30 19:06 45.74007 -67.03699 44878 ft 517 kts 49°
2026-04-30 19:06 45.81071 -66.91999 44879 ft 516 kts 49°
2026-04-30 19:07 45.88073 -66.80353 44882 ft 515 kts 49°
2026-04-30 19:08 45.97417 -66.64734 44902 ft 517 kts 49°
2026-04-30 19:09 46.04436 -66.52946 44897 ft 517 kts 49°
2026-04-30 19:09 46.09089 -66.45102 44904 ft 516 kts 49°
2026-04-30 19:10 46.18380 -66.29372 44903 ft 515 kts 50°
2026-04-30 19:11 46.25318 -66.17569 44915 ft 516 kts 50°
2026-04-30 19:12 46.29940 -66.09676 44916 ft 515 kts 50°
2026-04-30 19:12 46.34575 -66.01739 44911 ft 514 kts 50°
2026-04-30 19:13 46.43761 -65.85942 44918 ft 513 kts 50°
2026-04-30 19:14 46.48331 -65.78049 44932 ft 513 kts 50°
2026-04-30 19:14 46.52905 -65.70126 44953 ft 512 kts 50°
2026-04-30 19:15 46.57450 -65.62231 44951 ft 512 kts 50°
2026-04-30 19:15 46.64287 -65.50311 44965 ft 511 kts 50°
2026-04-30 19:16 46.68816 -65.42387 44965 ft 510 kts 50°
2026-04-30 19:17 46.75595 -65.30482 44966 ft 510 kts 51°
2026-04-30 19:17 46.82339 -65.18588 44981 ft 508 kts 51°
2026-04-30 19:18 46.89071 -65.06664 44986 ft 507 kts 51°
2026-04-30 19:19 46.93524 -64.98747 44992 ft 506 kts 51°
2026-04-30 19:19 47.00205 -64.86829 45000 ft 507 kts 51°
2026-04-30 19:20 47.04607 -64.78944 45006 ft 507 kts 51°
2026-04-30 19:21 47.11273 -64.66965 45008 ft 507 kts 51°
2026-04-30 19:22 47.19986 -64.51228 45018 ft 506 kts 51°
2026-04-30 19:23 47.33121 -64.27329 45040 ft 507 kts 52°
2026-04-30 19:24 47.39602 -64.15459 45044 ft 506 kts 52°
2026-04-30 19:25 47.50512 -63.95362 45047 ft 505 kts 51°
2026-04-30 19:26 47.59243 -63.79171 45059 ft 506 kts 52°
2026-04-30 19:27 47.65796 -63.66957 45057 ft 505 kts 52°
2026-04-30 19:28 47.72197 -63.54971 45073 ft 505 kts 52°
2026-04-30 19:29 47.80667 -63.39028 45088 ft 507 kts 52°
2026-04-30 19:30 47.89338 -63.22612 45092 ft 504 kts 52°
2026-04-30 19:31 47.97832 -63.06435 45107 ft 504 kts 52°
2026-04-30 19:31 48.04072 -62.94487 45116 ft 505 kts 52°
2026-04-30 19:32 48.08398 -62.86174 45116 ft 505 kts 52°
2026-04-30 19:32 48.12682 -62.77916 45115 ft 505 kts 52°
2026-04-30 19:33 48.16819 -62.69918 45116 ft 505 kts 52°
2026-04-30 19:33 48.21108 -62.61601 45111 ft 505 kts 52°
2026-04-30 19:34 48.25370 -62.53309 45118 ft 504 kts 52°
2026-04-30 19:35 48.31748 -62.40854 45124 ft 504 kts 52°
2026-04-30 19:35 48.35994 -62.32532 45133 ft 505 kts 53°
2026-04-30 19:36 48.40016 -62.24624 45134 ft 504 kts 53°
2026-04-30 19:36 48.46378 -62.12067 45137 ft 504 kts 53°
2026-04-30 19:37 48.50488 -62.03925 45149 ft 505 kts 53°
2026-04-30 19:37 48.54719 -61.95517 45154 ft 506 kts 53°
2026-04-30 19:38 48.58947 -61.87087 45156 ft 505 kts 53°
2026-04-30 19:38 48.63152 -61.78679 45160 ft 504 kts 53°
2026-04-30 19:39 48.67360 -61.70238 45167 ft 504 kts 53°
2026-04-30 19:39 48.71549 -61.61809 45168 ft 504 kts 53°
2026-04-30 19:40 48.75735 -61.53359 45173 ft 504 kts 53°
2026-04-30 19:40 48.79921 -61.44884 45170 ft 504 kts 53°
2026-04-30 19:41 48.84049 -61.36498 45172 ft 505 kts 53°
2026-04-30 19:41 48.88221 -61.27997 45172 ft 505 kts 54°
2026-04-30 19:42 48.92302 -61.19655 45174 ft 504 kts 54°
2026-04-30 19:42 48.96463 -61.11122 45174 ft 504 kts 54°
2026-04-30 19:43 49.00531 -61.02753 45175 ft 504 kts 54°
2026-04-30 19:44 49.06749 -60.89914 45180 ft 504 kts 54°
2026-04-30 19:44 49.10812 -60.81488 45177 ft 504 kts 54°
2026-04-30 19:45 49.14943 -60.72895 45189 ft 504 kts 54°
2026-04-30 19:45 49.19070 -60.64283 45194 ft 505 kts 54°
2026-04-30 19:46 49.23032 -60.55989 45201 ft 505 kts 54°
2026-04-30 19:46 49.27142 -60.47361 45195 ft 504 kts 54°
2026-04-30 19:47 49.31232 -60.38744 45199 ft 504 kts 54°
2026-04-30 19:47 49.35298 -60.30149 45200 ft 503 kts 55°
2026-04-30 19:48 49.39385 -60.21484 45205 ft 504 kts 55°
2026-04-30 19:48 49.43471 -60.12792 45202 ft 505 kts 55°
2026-04-30 19:49 49.47567 -60.04051 45199 ft 504 kts 55°
2026-04-30 19:49 49.53670 -59.90971 45202 ft 503 kts 55°
2026-04-30 19:50 49.57661 -59.82385 45202 ft 504 kts 55°
2026-04-30 19:50 49.61483 -59.74136 45218 ft 504 kts 55°
2026-04-30 19:51 49.65507 -59.65420 45219 ft 504 kts 55°
2026-04-30 19:51 49.69429 -59.56901 45222 ft 503 kts 55°
2026-04-30 19:52 49.73214 -59.48651 45221 ft 503 kts 55°
2026-04-30 19:52 49.77237 -59.39854 45224 ft 503 kts 55°
2026-04-30 19:53 49.81264 -59.31022 45228 ft 503 kts 56°
2026-04-30 19:53 49.85266 -59.22214 45227 ft 502 kts 56°
2026-04-30 19:54 49.89212 -59.13500 45228 ft 502 kts 56°
2026-04-30 19:54 49.93204 -59.04655 45227 ft 501 kts 56°
2026-04-30 19:55 49.97174 -58.95829 45237 ft 501 kts 56°
2026-04-30 19:55 50.01127 -58.87015 45238 ft 501 kts 56°
2026-04-30 19:56 50.05089 -58.78147 45243 ft 501 kts 56°
2026-04-30 19:56 50.08946 -58.69487 45238 ft 501 kts 56°
2026-04-30 19:57 50.12912 -58.60553 45234 ft 501 kts 56°
2026-04-30 19:57 50.16856 -58.51638 45232 ft 501 kts 56°
2026-04-30 19:58 50.20799 -58.42696 45229 ft 501 kts 56°
2026-04-30 19:58 50.24740 -58.33727 45219 ft 500 kts 56°
2026-04-30 19:59 50.28590 -58.24934 45219 ft 501 kts 56°
2026-04-30 20:00 50.34340 -58.11750 45228 ft 502 kts 56°
2026-04-30 20:00 50.38212 -58.02832 45232 ft 502 kts 56°
2026-04-30 20:01 50.44056 -57.89318 45227 ft 501 kts 56°
2026-04-30 20:01 50.47845 -57.80518 45224 ft 501 kts 56°
2026-04-30 20:02 50.53673 -57.66926 45224 ft 501 kts 56°
2026-04-30 20:03 50.59482 -57.53306 45225 ft 500 kts 56°
2026-04-30 20:03 50.63331 -57.44243 45228 ft 501 kts 56°
2026-04-30 20:04 50.67070 -57.35409 45228 ft 501 kts 56°
2026-04-30 20:05 50.72844 -57.21709 45228 ft 501 kts 57°
2026-04-30 20:05 50.78608 -57.07961 45208 ft 500 kts 57°
2026-04-30 20:06 50.82412 -56.98846 45204 ft 499 kts 57°
2026-04-30 20:06 50.86221 -56.89688 45206 ft 499 kts 57°
2026-04-30 20:07 50.90023 -56.80515 45212 ft 500 kts 57°
2026-04-30 20:08 50.95699 -56.66757 45212 ft 498 kts 57°
2026-04-30 20:08 50.99406 -56.57735 45213 ft 499 kts 57°
2026-04-30 20:09 51.03055 -56.48823 45218 ft 499 kts 57°
2026-04-30 20:09 51.08712 -56.34944 45230 ft 499 kts 58°
2026-04-30 20:10 51.14350 -56.21038 45228 ft 498 kts 58°
2026-04-30 20:11 51.19877 -56.07334 45242 ft 498 kts 58°
2026-04-30 20:11 51.23592 -55.98082 45250 ft 497 kts 58°
2026-04-30 20:12 51.29150 -55.84176 45253 ft 498 kts 58°
2026-04-30 20:13 51.32877 -55.74810 45247 ft 499 kts 58°
2026-04-30 20:13 51.36575 -55.65485 45252 ft 499 kts 58°
2026-04-30 20:14 51.40263 -55.56149 45252 ft 498 kts 58°
2026-04-30 20:14 51.43948 -55.46783 45254 ft 498 kts 58°
2026-04-30 20:15 51.47617 -55.37427 45248 ft 497 kts 58°
2026-04-30 20:15 51.51271 -55.28077 45253 ft 498 kts 58°
2026-04-30 20:16 51.54814 -55.18978 45256 ft 498 kts 58°
2026-04-30 20:16 51.58464 -55.09571 45260 ft 498 kts 58°
2026-04-30 20:17 51.62109 -55.00141 45253 ft 497 kts 58°
2026-04-30 20:17 51.65751 -54.90683 45254 ft 498 kts 59°
2026-04-30 20:18 51.69379 -54.81227 45268 ft 499 kts 58°
2026-04-30 20:18 51.72996 -54.71765 45262 ft 497 kts 58°
2026-04-30 20:19 51.76599 -54.62306 45275 ft 497 kts 58°
2026-04-30 20:19 51.79909 -54.52799 45266 ft 495 kts 68°
2026-04-30 20:20 51.82981 -54.42886 45270 ft 499 kts 64°
2026-04-30 20:20 51.85974 -54.32742 45274 ft 499 kts 65°
2026-04-30 20:21 51.88794 -54.22982 45267 ft 498 kts 65°
2026-04-30 20:21 51.91651 -54.13036 45276 ft 496 kts 65°
2026-04-30 20:22 51.94547 -54.02909 45281 ft 495 kts 65°
2026-04-30 20:22 51.97371 -53.92993 45291 ft 497 kts 65°
2026-04-30 20:23 52.00175 -53.83104 45296 ft 499 kts 65°
2026-04-30 20:23 52.02974 -53.73192 45299 ft 499 kts 65°
2026-04-30 20:24 52.05826 -53.63049 45301 ft 497 kts 65°
2026-04-30 20:24 52.08580 -53.53211 45305 ft 497 kts 65°
2026-04-30 20:25 52.12761 -53.38199 45308 ft 497 kts 65°
2026-04-30 20:26 52.16787 -53.23651 45305 ft 498 kts 66°
2026-04-30 20:26 52.20899 -53.08697 45310 ft 498 kts 66°
2026-04-30 20:27 52.26516 -52.88113 45310 ft 497 kts 66°
2026-04-30 20:28 52.32058 -52.67620 45315 ft 496 kts 66°
2026-04-30 20:30 52.38964 -52.41827 45325 ft 497 kts 66°
2026-04-30 20:31 52.47058 -52.11219 45314 ft 495 kts 67°
2026-04-30 20:32 52.53815 -51.85350 45333 ft 496 kts 67°
2026-04-30 20:33 52.57846 -51.69775 45335 ft 496 kts 67°
2026-04-30 20:34 52.61864 -51.54141 45321 ft 496 kts 67°
2026-04-30 20:35 52.65848 -51.38533 45331 ft 494 kts 67°
2026-04-30 20:35 52.69803 -51.22929 45338 ft 495 kts 68°
2026-04-30 20:36 52.72428 -51.12512 45332 ft 496 kts 68°
2026-04-30 20:37 52.76346 -50.96871 45330 ft 495 kts 68°
2026-04-30 20:37 52.78954 -50.86399 45334 ft 495 kts 68°
2026-04-30 20:38 52.81562 -50.75879 45340 ft 494 kts 68°
2026-04-30 20:38 52.84122 -50.65500 45350 ft 493 kts 68°
2026-04-30 20:39 52.87984 -50.49751 45353 ft 494 kts 68°
2026-04-30 20:40 52.91830 -50.33954 45357 ft 496 kts 68°
2026-04-30 20:40 52.94389 -50.23381 45361 ft 496 kts 68°
2026-04-30 20:41 52.98185 -50.07600 45356 ft 495 kts 68°
2026-04-30 20:41 53.00967 -49.97189 45360 ft 492 kts 58°
2026-04-30 20:42 53.04546 -49.87557 45363 ft 494 kts 58°
2026-04-30 20:43 53.09869 -49.72929 45369 ft 494 kts 58°
2026-04-30 20:43 53.13392 -49.63191 45365 ft 494 kts 58°
2026-04-30 20:44 53.18667 -49.48540 45370 ft 496 kts 58°
2026-04-30 20:45 53.25707 -49.28849 45360 ft 496 kts 59°
2026-04-30 20:45 53.29221 -49.18962 45370 ft 495 kts 59°
2026-04-30 20:46 53.36184 -48.99254 45360 ft 495 kts 59°
2026-04-30 20:47 53.41413 -48.84353 45362 ft 497 kts 59°
2026-04-30 20:48 53.46614 -48.69438 45362 ft 496 kts 59°
2026-04-30 20:48 53.50076 -48.59463 45365 ft 496 kts 59°
2026-04-30 20:49 53.53514 -48.49514 45360 ft 496 kts 59°
2026-04-30 20:50 53.58671 -48.34519 45359 ft 495 kts 60°
2026-04-30 20:50 53.62099 -48.24500 45353 ft 496 kts 60°
2026-04-30 20:51 53.65517 -48.14470 45352 ft 497 kts 60°
2026-04-30 20:51 53.70625 -47.99401 45356 ft 498 kts 60°
2026-04-30 20:52 53.74043 -47.89267 45356 ft 497 kts 60°